Location: *
(44.1392°N, 4.8079°E)
Time: 07:20:44
(UTC+00:00)

ARIANE 5 R/B - Pass Details

Date: 21 June 2021
Orbit: 748 x 794 km, 98.7° (Epoch: 02 August)

Event Time Altitude Azimuth Distance (km) Brightness Sun altitude
Rises 02:18:53 0° 21° (NNE) 3,206 7.3 -13.5°
Reaches altitude 10° 02:21:20 10° 29° (NNE) 2,277 6.4 -13.3°
Maximum altitude 02:26:00 38° 98° (E) 1,131 3.7 -12.8°
Drops below altitude 10° 02:30:39 10° 166° (SSE) 2,274 4.6 -12.2°
Enters shadow 02:31:55 - 171° (S) 2,751 5.0 -12.1°
